Overview Statistics Trail Chart Weather Telemetry Raw packets
 

This is the latest recevied weather packets stored in our database for station/object OK2JV-13. If no packets are shown the sender has not sent any weather packets the latest 10 day(s).

<< 21 22 23 24 25 26 27 >>
Time Temp. Humidity Pressure Rain* Wind** Luminosity Snow
1788153480 17.22° C 78% 1012.8 hPa - - - -
1788152876 16.67° C 77% 1012.9 hPa - - - -
1788152274 16.67° C 76% 1013.1 hPa - - - -
1788151670 17.22° C 75% 1013.3 hPa - - - -
1788151064 17.22° C 75% 1013.5 hPa - - - -
1788150461 17.22° C 75% 1013.4 hPa - - - -
1788149857 17.78° C 72% 1013.6 hPa - - - -
1788149252 17.78° C 70% 1013.5 hPa - - - -
1788148648 18.33° C 66% 1013.6 hPa - - - -
1788148044 17.78° C 63% 1013.4 hPa - - - -
1788147441 17.78° C 63% 1013.3 hPa - - - -
1788146836 17.78° C 64% 1013.2 hPa - - - -
1788146232 17.78° C 63% 1013.2 hPa - - - -
1788145628 17.78° C 63% 1013.3 hPa - - - -
1788145024 17.22° C 68% 1013.2 hPa - - - -
1788144420 17.22° C 68% 1013.2 hPa - - - -
1788143817 17.22° C 68% 1013.4 hPa - - - -
1788143212 17.22° C 69% 1013.5 hPa - - - -
1788142609 17.22° C 67% 1013.5 hPa - - - -
1788142003 16.67° C 67% 1013.3 hPa - - - -
1788141400 16.67° C 67% 1013.3 hPa - - - -
1788140794 16.67° C 67% 1013.4 hPa - - - -
1788140190 16.67° C 67% 1013.7 hPa - - - -
1788139586 16.67° C 67% 1013.6 hPa - - - -
1788138985 16.67° C 67% 1013.8 hPa - - - -

* Rain since midnight (hover to see other rain measurements)
** Current wind speed in m/s (hover to see current wind gust speed)